Home   Weather   Town of Fairfield   Past weeks
Flag for USA

Past Weather in Town of Fairfield, Vermont, USA — Yesterday and Last 2 Weeks

Now
72 °F

Light rain. Fog.


Feels Like: 70 °F
Forecast: 79 / 69 °F
Wind: 9 mph from South

Location: Burlington International Airport
Current Time: Sep 28, 2020 at 12:17:20 pm
Latest Report: Sep 28, 2020 at 11:37 am
Visibility: 3 mi
Pressure29.83 "Hg
Humidity: 87%
Dew Point: 68 °F
Location of Town of FairfieldLocation

Past Weather in Town of Fairfield — Graph

°F

Town of Fairfield Temperature Yesterday

Maximum temperature yesterday: 79 °F (at 1:54 pm)
Minimum temperature yesterday: 69 °F (at 4:54 am)
Average temperature yesterday: 73 °F

High & Low Weather Summary for the Past Weeks

 TemperatureHumidityPressure
High81 °F (Sep 26, 1:54 pm)93% (Sep 15, 7:54 am)30.65 "Hg (Sep 15, 7:54 am)
Low34 °F (Sep 21, 6:54 am)21% (Sep 21, 3:54 pm)29.76 "Hg (Sep 23, 3:54 pm)
Average58 °F64%30.12 "Hg
* Reported Sep 13 11:54 am — Sep 28 11:13 am, Town of Fairfield. Weather by CustomWeather, © 2020

Note: Actual official high and low records may vary slightly from our data, if they occured in-between our weather recording intervals... More about our weather records

Town of Fairfield Weather History for the Previous 24 Hours

Scroll right to see more
 ConditionsComfort  
Time TempWeatherWind HumidityBarometerVisibility
11:13 am
Mon, Sep 28
72 °FLight rain. Fog.6 mph87%29.84 "Hg3 mi
11:07 am72 °FLight rain. Cloudy.10 mph84%29.84 "Hg7 mi
9:54 am75 °FPartly sunny.5 mph71%29.83 "Hg10 mi
8:54 am74 °FPartly sunny.7 mph74%29.83 "Hg10 mi
7:54 am72 °FBroken clouds.7 mph78%29.84 "Hg10 mi
6:54 am71 °FPartly sunny.6 mph78%29.84 "Hg10 mi
5:54 am70 °FPartly cloudy.6 mph81%29.85 "Hg10 mi
4:54 am70 °FClear.7 mph81%29.85 "Hg10 mi
3:54 am71 °FPassing clouds.5 mph76%29.86 "Hg10 mi
2:54 am71 °FPassing clouds.8 mph73%29.88 "Hg10 mi
1:54 am71 °FPassing clouds.8 mph73%29.89 "Hg10 mi
12:54 am72 °FPassing clouds.12 mph68%29.89 "Hg10 mi
11:54 pm
Sun, Sep 27
71 °FClear.13 mph68%29.89 "Hg10 mi
10:54 pm72 °FClear.14 mph66%29.89 "Hg10 mi
9:54 pm72 °FClear.12 mph66%29.89 "Hg10 mi
8:54 pm72 °FClear.9 mph68%29.89 "Hg10 mi
7:54 pm72 °FPassing clouds.8 mph68%29.87 "Hg10 mi
6:54 pm75 °FPassing clouds.10 mph60%29.85 "Hg10 mi
5:54 pm77 °FPartly sunny.16 mph54%29.85 "Hg10 mi
4:54 pm78 °FPartly sunny.16 mph54%29.85 "Hg10 mi
3:54 pm79 °FBroken clouds.21 mph52%29.85 "Hg10 mi
2:54 pm79 °FPartly sunny.15 mph52%29.85 "Hg10 mi
1:54 pm79 °FPartly sunny.14 mph52%29.85 "Hg10 mi
12:54 pm77 °FScattered clouds.15 mph58%29.88 "Hg10 mi
Weather by CustomWeather, © 2020

See weather overview